RA02585 UWLL-UWLW

Flight info

Callsign RA02585
Flight time N/A
Altitude 9000
Route DOGIT DCT TERDI TERDI1F
Aircraft DA40/L-SBDGRY/S

Departure

Time 2026-04-24 12:44
Airport Ulyanovsk Baratayevka Airport (UWLL)

Arrival

Time N/A
Airport Ulyanovsk Vostochny Airport (UWLW)
Time Latitude Longitude Altitude Speed Heading
2026-04-24 12:24 54.27152 48.23486 461 ft 0 kts 122°
2026-04-24 12:35 54.27135 48.23444 461 ft 0 kts 117°
2026-04-24 12:37 54.27135 48.23447 461 ft 1 kts 115°
2026-04-24 12:37 54.27153 48.23460 461 ft 10 kts 15°
2026-04-24 12:37 54.27195 48.23500 461 ft 3 kts 31°
2026-04-24 12:37 54.27225 48.23530 461 ft 2 kts 29°
2026-04-24 12:38 54.27259 48.23569 461 ft 17 kts 29°
2026-04-24 12:38 54.27419 48.23732 461 ft 29 kts 34°
2026-04-24 12:38 54.27489 48.23813 461 ft 0 kts 38°
2026-04-24 12:39 54.27557 48.23976 461 ft 13 kts 13°
2026-04-24 12:39 54.27605 48.23925 461 ft 9 kts 304°
2026-04-24 12:39 54.27650 48.23802 461 ft 21 kts 302°
2026-04-24 12:40 54.27669 48.23696 461 ft 2 kts 281°
2026-04-24 12:40 54.27671 48.23671 461 ft 7 kts 275°
2026-04-24 12:40 54.27669 48.23562 461 ft 4 kts 256°
2026-04-24 12:40 54.27665 48.23519 461 ft 6 kts 257°
2026-04-24 12:41 54.27661 48.23493 461 ft 0 kts 260°
2026-04-24 12:41 54.27661 48.23492 461 ft 0 kts 261°
2026-04-24 12:42 54.27642 48.23357 461 ft 15 kts 255°
2026-04-24 12:42 54.27629 48.23270 461 ft 5 kts 245°
2026-04-24 12:42 54.27613 48.23210 461 ft 5 kts 233°
2026-04-24 12:42 54.27605 48.23192 461 ft 0 kts 235°
2026-04-24 12:43 54.27605 48.23190 461 ft 0 kts 239°
2026-04-24 12:43 54.27591 48.23164 461 ft 13 kts 215°
2026-04-24 12:43 54.27349 48.22899 463 ft 67 kts 209°
2026-04-24 12:43 54.26970 48.22396 706 ft 69 kts 214°
2026-04-24 12:44 54.26568 48.21804 875 ft 86 kts 214°
2026-04-24 12:44 54.26076 48.21153 1067 ft 94 kts 212°
2026-04-24 12:44 54.25579 48.20345 1260 ft 104 kts 237°
2026-04-24 12:44 54.25600 48.19101 1438 ft 118 kts 287°
2026-04-24 12:45 54.26090 48.17909 1512 ft 124 kts 302°
2026-04-24 12:45 54.26768 48.17004 1556 ft 128 kts 344°
2026-04-24 12:45 54.27584 48.17360 1548 ft 125 kts 33°
2026-04-24 12:45 54.28267 48.18235 1539 ft 119 kts 46°
2026-04-24 12:46 54.28896 48.19171 1476 ft 121 kts 41°
2026-04-24 12:46 54.29599 48.19963 1428 ft 122 kts 33°
2026-04-24 12:46 54.30342 48.20717 1344 ft 123 kts 33°
2026-04-24 12:46 54.31087 48.21469 1297 ft 121 kts 33°
2026-04-24 12:47 54.31791 48.22168 1319 ft 115 kts 33°
2026-04-24 12:47 54.32400 48.22953 1287 ft 99 kts 65°
2026-04-24 12:47 54.32354 48.23942 1237 ft 80 kts 124°
2026-04-24 12:47 54.32087 48.24776 1232 ft 76 kts 127°
2026-04-24 12:48 54.31833 48.25576 1177 ft 81 kts 126°
2026-04-24 12:48 54.31618 48.26270 1123 ft 82 kts 126°
2026-04-24 12:48 54.31361 48.26738 1088 ft 77 kts 154°
2026-04-24 12:49 54.30876 48.26710 1016 ft 71 kts 199°
2026-04-24 12:49 54.30491 48.26220 987 ft 67 kts 208°
2026-04-24 12:49 54.30100 48.25791 921 ft 67 kts 199°
2026-04-24 12:49 54.29682 48.25382 843 ft 73 kts 203°
2026-04-24 12:50 54.29230 48.24913 742 ft 79 kts 201°
2026-04-24 12:50 54.28749 48.24391 620 ft 81 kts 205°
2026-04-24 12:50 54.28294 48.23915 487 ft 74 kts 203°
2026-04-24 12:50 54.27931 48.23532 461 ft 50 kts 207°
2026-04-24 12:51 54.27653 48.23230 461 ft 60 kts 208°
2026-04-24 12:51 54.27223 48.22741 592 ft 77 kts 206°
2026-04-24 12:51 54.26802 48.22196 835 ft 75 kts 210°
2026-04-24 12:51 54.26333 48.21547 973 ft 97 kts 219°
2026-04-24 12:52 54.25944 48.20619 1326 ft 100 kts 248°
2026-04-24 12:52 54.26138 48.19417 1496 ft 117 kts 300°
2026-04-24 12:52 54.26658 48.18265 1553 ft 125 kts 306°
2026-04-24 12:52 54.27425 48.17727 1573 ft 126 kts
2026-04-24 12:53 54.28200 48.18343 1558 ft 122 kts 32°
2026-04-24 12:53 54.28945 48.19037 1504 ft 124 kts 32°
2026-04-24 12:53 54.29722 48.19744 1458 ft 125 kts 32°
2026-04-24 12:53 54.30484 48.20466 1409 ft 125 kts 35°
2026-04-24 12:54 54.31240 48.21238 1349 ft 126 kts 34°
2026-04-24 12:54 54.31839 48.22156 1369 ft 100 kts 76°
2026-04-24 12:54 54.31736 48.23153 1322 ft 86 kts 122°
2026-04-24 12:54 54.31464 48.24063 1302 ft 85 kts 124°
2026-04-24 12:55 54.31183 48.24971 1241 ft 88 kts 124°
2026-04-24 12:55 54.30790 48.25685 1164 ft 74 kts 167°
2026-04-24 12:55 54.30290 48.25756 998 ft 70 kts 180°
2026-04-24 12:55 54.29826 48.25555 862 ft 71 kts 199°
2026-04-24 12:56 54.29375 48.25061 768 ft 80 kts 202°
2026-04-24 12:56 54.28892 48.24553 667 ft 82 kts 204°
2026-04-24 12:56 54.28439 48.24071 521 ft 72 kts 201°
2026-04-24 12:56 54.28050 48.23657 461 ft 56 kts 205°
2026-04-24 12:57 54.27782 48.23371 461 ft 37 kts 212°
2026-04-24 12:57 54.27512 48.23075 461 ft 69 kts 207°
2026-04-24 12:57 54.27068 48.22573 623 ft 78 kts 207°
2026-04-24 12:57 54.26629 48.22017 806 ft 86 kts 210°
2026-04-24 12:58 54.26337 48.21013 950 ft 112 kts 268°
2026-04-24 12:58 54.26734 48.19826 1195 ft 117 kts 302°
2026-04-24 12:58 54.27244 48.18731 1409 ft 120 kts 310°
2026-04-24 12:58 54.28046 48.18283 1501 ft 132 kts
2026-04-24 12:59 54.28864 48.18947 1519 ft 133 kts 33°
2026-04-24 12:59 54.29670 48.19724 1492 ft 130 kts 33°
2026-04-24 12:59 54.30436 48.20443 1456 ft 121 kts 33°
2026-04-24 12:59 54.31160 48.21142 1361 ft 118 kts 34°
2026-04-24 13:00 54.31879 48.21835 1277 ft 108 kts 36°
2026-04-24 13:00 54.32204 48.22723 1229 ft 83 kts 103°
2026-04-24 13:00 54.31966 48.23562 1157 ft 77 kts 122°
2026-04-24 13:00 54.31741 48.24385 1118 ft 74 kts 124°
2026-04-24 13:01 54.31521 48.25172 1071 ft 74 kts 123°
2026-04-24 13:01 54.31289 48.25950 1023 ft 67 kts 127°
2026-04-24 13:01 54.30932 48.26359 966 ft 63 kts 169°
2026-04-24 13:01 54.30489 48.26248 904 ft 67 kts 198°
2026-04-24 13:02 54.30088 48.25821 839 ft 69 kts 204°
2026-04-24 13:02 54.29706 48.25404 757 ft 63 kts 202°
2026-04-24 13:02 54.29321 48.25004 732 ft 66 kts 202°
2026-04-24 13:02 54.28906 48.24574 649 ft 72 kts 204°
2026-04-24 13:03 54.28473 48.24110 553 ft 74 kts 201°
2026-04-24 13:03 54.28045 48.23643 476 ft 65 kts 203°
2026-04-24 13:03 54.27719 48.23301 461 ft 46 kts 205°
2026-04-24 13:03 54.27484 48.23049 461 ft 31 kts 208°
2026-04-24 13:04 54.27275 48.22823 461 ft 55 kts 209°
2026-04-24 13:04 54.26875 48.22349 625 ft 71 kts 210°
2026-04-24 13:04 54.26505 48.21818 867 ft 69 kts 209°
2026-04-24 13:04 54.26183 48.21187 1058 ft 87 kts 237°
2026-04-24 13:05 54.26333 48.20027 1273 ft 119 kts 298°
2026-04-24 13:05 54.26889 48.18890 1418 ft 126 kts 301°
2026-04-24 13:05 54.27657 48.18067 1470 ft 144 kts 347°
2026-04-24 13:05 54.28549 48.18450 1447 ft 129 kts 31°
2026-04-24 13:06 54.29333 48.19145 1372 ft 124 kts 32°
2026-04-24 13:06 54.30069 48.19818 1346 ft 116 kts 33°
2026-04-24 13:06 54.30818 48.20479 1332 ft 124 kts 31°
2026-04-24 13:06 54.31584 48.21167 1441 ft 120 kts 32°
2026-04-24 13:07 54.32319 48.21845 1415 ft 121 kts 31°
2026-04-24 13:07 54.33078 48.22550 1350 ft 122 kts 33°
2026-04-24 13:07 54.33731 48.23372 1335 ft 99 kts 65°
2026-04-24 13:07 54.33745 48.24355 1332 ft 78 kts 120°
2026-04-24 13:08 54.33601 48.25234 1413 ft 81 kts 123°
2026-04-24 13:08 54.33338 48.26147 1488 ft 87 kts 126°
2026-04-24 13:08 54.33096 48.27166 1545 ft 93 kts 125°
2026-04-24 13:09 54.32078 48.27880 1276 ft 81 kts 186°
2026-04-24 13:09 54.31639 48.27520 1182 ft 60 kts 212°
2026-04-24 13:09 54.31287 48.27061 1164 ft 66 kts 202°
2026-04-24 13:09 54.30856 48.26648 1124 ft 74 kts 198°
2026-04-24 13:10 54.30392 48.26180 1008 ft 79 kts 206°
2026-04-24 13:10 54.29963 48.25675 920 ft 69 kts 202°
2026-04-24 13:10 54.29546 48.25265 805 ft 67 kts 199°
2026-04-24 13:10 54.29147 48.24828 696 ft 69 kts 201°
2026-04-24 13:11 54.28733 48.24380 604 ft 71 kts 200°
2026-04-24 13:11 54.28334 48.23960 503 ft 65 kts 202°
2026-04-24 13:11 54.27978 48.23573 461 ft 51 kts 209°
2026-04-24 13:11 54.27722 48.23312 461 ft 36 kts 207°
2026-04-24 13:12 54.27541 48.23112 461 ft 25 kts 210°
2026-04-24 13:12 54.27413 48.22983 461 ft 16 kts 213°
2026-04-24 13:12 54.27322 48.22882 461 ft 19 kts 212°
2026-04-24 13:12 54.27202 48.22765 461 ft 7 kts 191°
2026-04-24 13:13 54.27158 48.22751 461 ft 7 kts 184°
2026-04-24 13:13 54.27069 48.22757 461 ft 17 kts 172°
2026-04-24 13:13 54.27015 48.22778 461 ft 0 kts 168°
2026-04-24 13:13 54.27000 48.22785 461 ft 14 kts 166°
2026-04-24 13:14 54.26925 48.22861 461 ft 11 kts 96°
2026-04-24 13:14 54.26961 48.22937 461 ft 2 kts 37°
2026-04-24 13:14 54.26977 48.22959 461 ft 11 kts 32°
2026-04-24 13:14 54.27019 48.23022 461 ft 9 kts 92°
2026-04-24 13:15 54.26990 48.23126 461 ft 5 kts 109°
2026-04-24 13:15 54.26967 48.23196 461 ft 5 kts 115°
2026-04-24 13:15 54.26975 48.23260 461 ft 11 kts 42°
2026-04-24 13:15 54.26981 48.23272 461 ft 0 kts 96°
2026-04-24 13:16 54.26967 48.23303 461 ft 4 kts 128°
2026-04-24 13:16 54.26956 48.23323 461 ft 0 kts 203°
2026-04-24 13:16 54.26949 48.23315 461 ft 0 kts 244°
2026-04-24 13:16 54.26949 48.23310 461 ft 1 kts 277°
2026-04-24 13:17 54.26951 48.23306 461 ft 0 kts 301°